OZ7MKS Weather Reports


Display with metric or nautical units.
time (UTC)temp
F
wind
direction
speed
MPH
gust
MPH
rain 1hr
in
rain 24hr
in
rain mn
in
humidity
%
barometer
mb
20260506091004 56 55 5.0 12.0 0.00 0.00 0.00 65 1012.8
20260506090504 55 118 3.0 7.0 0.00 0.00 0.00 65 1012.8
20260506090003 55 61 5.0 10.0 0.00 0.00 0.00 67 1012.8
20260506085004 54 43 4.0 8.0 0.00 0.00 0.00 69 1012.8
20260506084504 55 358 2.0 8.0 0.00 0.00 0.00 68 1012.8
20260506084003 55 95 5.0 9.0 0.00 0.00 0.00 69 1012.9
20260506083004 55 64 5.0 9.0 0.00 0.00 0.00 72 1012.8
20260506082504 54 58 6.0 10.0 0.00 0.00 0.00 69 1012.8
20260506082003 55 342 4.0 8.0 0.00 0.00 0.00 70 1012.8
20260506081504 54 49 5.0 8.0 0.00 0.00 0.00 72 1012.8
20260506081003 54 61 3.0 10.0 0.00 0.00 0.00 71 1012.8
20260506073504 53 56 4.0 9.0 0.00 0.00 0.00 73 1012.7
20260506073004 54 58 5.0 10.0 0.00 0.00 0.00 73 1012.8
20260506072504 54 45 3.0 8.0 0.00 0.00 0.00 75 1012.7
20260506072003 53 68 5.0 9.0 0.00 0.00 0.00 73 1012.6
20260506071503 53 49 3.0 7.0 0.00 0.00 0.00 74 1012.6
20260506071003 53 1 2.0 5.0 0.00 0.00 0.00 75 1012.5
20260506062503 50 4 2.0 8.0 0.00 0.00 0.00 79 1012.4
20260506062004 49 50 1.0 5.0 0.00 0.00 0.00 80 1012.4
20260506061504 49 339 2.0 6.0 0.00 0.00 0.00 81 1012.4
20260506061004 48 32 2.0 5.0 0.00 0.00 0.00 82 1012.3
20260506060504 48 42 2.0 6.0 0.00 0.00 0.00 83 1012.3
20260506051003 42 315 0.0 3.0 0.00 0.00 0.00 93 1012.4
20260506050504 42 319 0.0 2.0 0.00 0.00 0.00 94 1012.5
20260506045004 41 318 0.0 0.0 0.00 0.00 0.00 93 1012.5
20260506044504 40 318 0.0 0.0 0.00 0.00 0.00 93 1012.5
20260506044004 40 318 0.0 0.0 0.00 0.00 0.00 92 1012.6
20260506042504 40 318 0.0 0.0 0.00 0.00 0.00 92 1012.7
20260506042003 40 318 0.0 1.0 0.00 0.00 0.00 92 1012.6
20260506041504 40 318 0.0 0.0 0.00 0.00 0.00 92 1012.7
20260506041003 40 318 0.0 1.0 0.00 0.00 0.00 92 1012.6
20260506040504 40 318 0.0 0.0 0.00 0.00 0.00 91 1012.7
20260506040004 40 318 0.0 0.0 0.00 0.00 0.00 91 1012.7
20260506035503 40 318 0.0 0.0 0.00 0.00 0.00 91 1012.7
20260506035004 40 318 0.0 1.0 0.00 0.00 0.00 91 1012.7
20260506034504 40 318 0.0 0.0 0.00 0.00 0.00 91 1012.7
20260506034003 40 318 0.0 0.0 0.00 0.00 0.00 91 1012.7
20260506033503 40 318 0.0 0.0 0.00 0.00 0.00 91 1012.7
20260506033004 40 318 0.0 0.0 0.00 0.00 0.00 91 1012.7
20260506032504 40 318 0.0 0.0 0.00 0.00 0.00 91 1012.7
20260506032004 40 318 0.0 0.0 0.00 0.00 0.00 91 1012.7
20260506031504 40 318 0.0 0.0 0.00 0.00 0.00 91 1012.8
20260506031004 40 318 0.0 0.0 0.00 0.00 0.00 91 1012.7
20260506030504 40 318 0.0 0.0 0.00 0.00 0.00 91 1012.7
20260506025004 40 318 1.0 2.0 0.00 0.00 0.00 91 1012.8
20260506024004 40 318 0.0 0.0 0.00 0.00 0.00 91 1012.8
20260506023504 40 318 0.0 2.0 0.00 0.00 0.00 91 1012.8
20260506023003 40 318 1.0 2.0 0.00 0.00 0.00 91 1012.8
20260506022504 40 318 0.0 0.0 0.00 0.00 0.00 90 1012.8
20260506022004 40 318 0.0 0.0 0.00 0.00 0.00 90 1012.8
20260506021504 40 318 0.0 0.0 0.00 0.00 0.00 90 1012.8
20260506020503 41 318 0.0 1.0 0.00 0.00 0.00 90 1012.7
20260506020003 41 318 1.0 1.0 0.00 0.00 0.00 90 1012.6
20260506015504 41 318 0.0 0.0 0.00 0.00 0.00 90 1012.6
20260506014004 42 318 0.0 1.0 0.00 0.00 0.00 89 1012.6
20260506013503 42 318 0.0 0.0 0.00 0.00 0.00 89 1012.6
20260506012004 42 318 0.0 0.0 0.00 0.00 0.00 90 1012.6
20260506011504 42 318 0.0 0.0 0.00 0.00 0.00 90 1012.6
20260506011004 42 318 0.0 0.0 0.00 0.00 0.00 90 1012.6
20260506010003 41 318 0.0 0.0 0.00 0.00 0.00 90 1012.6
20260506005504 41 318 0.0 0.0 0.00 0.00 0.00 90 1012.7
20260506004504 41 319 1.0 3.0 0.00 0.00 0.00 91 1012.6
20260506004004 41 321 0.0 1.0 0.00 0.00 0.00 90 1012.7
20260506003504 41 321 0.0 1.0 0.00 0.00 0.00 90 1012.7
20260506003004 40 321 0.0 2.0 0.00 0.00 0.00 90 1012.8
20260506002503 40 321 1.0 2.0 0.00 0.00 0.00 90 1012.8
20260506002004 40 321 0.0 2.0 0.00 0.00 0.00 90 1012.8
20260506001504 40 321 0.0 1.0 0.00 0.00 0.00 90 1012.8
20260506001004 40 321 0.0 3.0 0.00 0.00 0.00 89 1012.8
20260506000504 40 322 1.0 3.0 0.00 0.00 0.00 89 1012.9
20260506000004 40 323 1.0 2.0 0.00 0.00 0.00 89 1012.9
20260505235504 40 323 1.0 2.0 0.00 0.00 0.00 88 1012.9
20260505235004 40 323 0.0 2.0 0.00 0.00 0.00 88 1012.9
20260505234504 40 323 1.0 2.0 0.00 0.00 0.00 88 1013.0
20260505233504 40 323 0.0 0.0 0.00 0.00 0.00 87 1013.0
20260505233004 40 323 0.0 0.0 0.00 0.00 0.00 87 1013.0
20260505231504 41 323 0.0 1.0 0.00 0.00 0.00 86 1013.2
20260505231004 41 323 1.0 2.0 0.00 0.00 0.00 86 1013.2
20260505230504 41 323 0.0 1.0 0.00 0.00 0.00 86 1013.2
20260505230004 41 323 0.0 1.0 0.00 0.00 0.00 86 1013.2
20260505225504 41 323 0.0 1.0 0.00 0.00 0.00 86 1013.2
20260505225003 41 323 1.0 2.0 0.00 0.00 0.00 86 1013.3
20260505224503 41 323 0.0 1.0 0.00 0.00 0.00 86 1013.3
20260505224003 41 323 0.0 1.0 0.00 0.00 0.00 86 1013.2
20260505222503 41 323 0.0 2.0 0.00 0.00 0.00 84 1013.3
20260505222004 42 323 2.0 3.0 0.00 0.00 0.00 84 1013.3
20260505221504 42 323 1.0 2.0 0.00 0.00 0.00 84 1013.3
20260505221003 42 323 1.0 2.0 0.00 0.00 0.00 84 1013.3
20260505220503 42 323 0.0 2.0 0.00 0.00 0.00 83 1013.3
20260505220004 42 323 0.0 2.0 0.00 0.00 0.00 83 1013.3
20260505215503 42 323 0.0 2.0 0.00 0.00 0.00 83 1013.3
20260505215004 42 323 0.0 3.0 0.00 0.00 0.00 83 1013.3
20260505214504 42 323 0.0 0.0 0.00 0.00 0.00 84 1013.3
20260505214003 43 323 0.0 0.0 0.00 0.00 0.00 83 1013.4
20260505213504 43 323 0.0 0.0 0.00 0.00 0.00 84 1013.4
20260505213004 43 323 0.0 0.0 0.00 0.00 0.00 83 1013.4
20260505212504 43 323 0.0 1.0 0.00 0.00 0.00 84 1013.5
20260505212004 43 323 1.0 2.0 0.00 0.00 0.00 84 1013.5
20260505211503 43 323 0.0 1.0 0.00 0.00 0.00 84 1013.5
20260505211004 43 323 0.0 1.0 0.00 0.00 0.00 84 1013.6
20260505210504 43 323 0.0 0.0 0.00 0.00 0.00 84 1013.6
20260505210004 44 323 0.0 0.0 0.00 0.00 0.00 84 1013.5
20260505205504 44 323 0.0 0.0 0.00 0.00 0.00 84 1013.5
20260505205003 44 323 0.0 0.0 0.00 0.00 0.00 84 1013.4
20260505204504 44 323 0.0 0.0 0.00 0.00 0.00 83 1013.4
20260505204004 44 323 0.0 1.0 0.00 0.00 0.00 83 1013.4
20260505203504 44 323 0.0 0.0 0.00 0.00 0.00 83 1013.4
20260505203004 44 323 0.0 1.0 0.00 0.00 0.00 83 1013.4
20260505202504 45 323 1.0 2.0 0.00 0.00 0.00 83 1013.4
20260505202004 45 323 0.0 0.0 0.00 0.00 0.00 83 1013.3
20260505201504 45 323 0.0 0.0 0.00 0.00 0.00 83 1013.3
20260505201004 45 323 0.0 1.0 0.00 0.00 0.00 82 1013.2
20260505200503 45 323 0.0 1.0 0.00 0.00 0.00 82 1013.2
20260505200003 45 323 0.0 3.0 0.00 0.00 0.00 82 1013.2
20260505195504 45 322 1.0 3.0 0.00 0.00 0.00 81 1013.2
20260505195003 45 324 1.0 3.0 0.00 0.00 0.00 81 1013.2
20260505194503 45 324 0.0 0.0 0.00 0.00 0.00 81 1013.3
20260505194004 45 324 1.0 2.0 0.00 0.00 0.00 80 1013.2
20260505193504 45 324 0.0 3.0 0.00 0.00 0.00 79 1013.1
20260505193004 45 324 1.0 3.0 0.00 0.00 0.00 79 1013.1
20260505192504 46 325 2.0 3.0 0.00 0.00 0.00 78 1013.1
20260505191503 46 336 1.0 3.0 0.00 0.00 0.00 77 1013.1
20260505191004 46 337 2.0 3.0 0.00 0.00 0.00 77 1013.0
20260505190004 46 329 1.0 3.0 0.00 0.00 0.00 76 1013.0
20260505185504 46 324 2.0 6.0 0.00 0.00 0.00 76 1012.9
20260505185004 46 306 1.0 3.0 0.00 0.00 0.00 76 1012.9
20260505184504 46 312 2.0 3.0 0.00 0.00 0.00 77 1012.9
20260505183504 47 324 2.0 3.0 0.00 0.00 0.00 76 1012.8
20260505182504 47 325 1.0 3.0 0.00 0.00 0.00 77 1012.9
20260505182004 47 320 1.0 6.0 0.00 0.00 0.00 77 1012.9
20260505181503 47 290 1.0 5.0 0.00 0.00 0.00 77 1012.8
20260505181004 48 316 1.0 3.0 0.00 0.00 0.00 77 1012.8
20260505180004 48 337 1.0 5.0 0.00 0.00 0.00 76 1012.7
20260505175503 48 316 2.0 6.0 0.00 0.00 0.00 76 1012.8
20260505175003 49 330 1.0 7.0 0.00 0.00 0.00 76 1012.7
20260505174504 49 315 1.0 3.0 0.00 0.00 0.00 76 1012.7
20260505174004 49 291 1.0 7.0 0.00 0.00 0.00 75 1012.7
20260505173503 49 326 2.0 5.0 0.00 0.00 0.00 75 1012.7
20260505173004 49 297 2.0 3.0 0.00 0.00 0.00 75 1012.7
20260505172004 50 343 3.0 6.0 0.00 0.00 0.00 75 1012.6
20260505171004 50 265 1.0 6.0 0.00 0.00 0.00 76 1012.6
20260505170503 50 342 2.0 3.0 0.00 0.00 0.00 77 1012.6
20260505165004 51 318 2.0 6.0 0.00 0.00 0.00 75 1012.7
20260505164504 52 19 1.0 7.0 0.00 0.00 0.00 74 1012.7
20260505164004 52 353 3.0 7.0 0.00 0.00 0.00 72 1012.7
20260505163503 52 296 2.0 7.0 0.00 0.00 0.00 72 1012.7
20260505163004 52 276 3.0 7.0 0.00 0.00 0.00 71 1012.7
20260505162504 52 267 2.0 8.0 0.00 0.00 0.00 71 1012.7
20260505162003 52 283 3.0 10.0 0.00 0.00 0.00 70 1012.7
20260505161003 53 327 2.0 6.0 0.00 0.00 0.00 68 1012.7
20260505160503 53 333 3.0 9.0 0.00 0.00 0.00 66 1012.7
20260505152504 54 337 2.0 8.0 0.00 0.00 0.00 65 1012.7
20260505152004 54 7 3.0 6.0 0.00 0.00 0.00 64 1012.7
20260505151504 54 346 3.0 7.0 0.00 0.00 0.00 62 1012.6
20260505151004 54 300 3.0 9.0 0.00 0.00 0.00 64 1012.6
20260505150504 55 332 3.0 8.0 0.00 0.00 0.00 62 1012.6
20260505140504 56 336 3.0 8.0 0.00 0.00 0.00 57 1012.6
20260505125004 57 269 5.0 9.0 0.00 0.00 0.00 58 1012.5
20260505124004 57 272 1.0 9.0 0.00 0.00 0.00 55 1012.4
20260505123504 57 299 3.0 9.0 0.00 0.00 0.00 53 1012.4
20260505123004 57 24 2.0 7.0 0.00 0.00 0.00 52 1012.4
20260505122503 57 303 1.0 12.0 0.00 0.00 0.00 50 1012.4
20260505122003 57 295 3.0 9.0 0.00 0.00 0.00 51 1012.4
20260505121503 57 237 3.0 10.0 0.00 0.00 0.00 50 1012.5
20260505120504 56 215 3.0 9.0 0.00 0.00 0.00 49 1012.4
20260505115004 56 296 1.0 5.0 0.00 0.00 0.00 55 1012.5
20260505114504 56 269 3.0 8.0 0.00 0.00 0.00 55 1012.4
20260505114004 56 298 4.0 7.0 0.00 0.00 0.00 54 1012.5
20260505113503 56 240 5.0 12.0 0.00 0.00 0.00 53 1012.5
20260505113004 56 243 4.0 12.0 0.00 0.00 0.00 55 1012.5
20260505112503 56 270 5.0 9.0 0.00 0.00 0.00 57 1012.5
20260505112004 56 59 2.0 7.0 0.00 0.00 0.00 61 1012.5
20260505111504 56 265 7.0 12.0 0.00 0.00 0.00 60 1012.5
20260505111003 55 273 4.0 10.0 0.00 0.00 0.00 62 1012.5
20260505110503 56 315 2.0 12.0 0.00 0.00 0.00 60 1012.6
20260505102004 54 274 1.0 7.0 0.00 0.00 0.00 63 1012.6
20260505101503 54 272 2.0 3.0 0.00 0.00 0.00 63 1012.6
20260505101004 54 331 2.0 8.0 0.00 0.00 0.00 64 1012.5
20260505100503 54 277 1.0 8.0 0.00 0.00 0.00 66 1012.5
20260505100004 54 272 0.0 3.0 0.00 0.00 0.00 66 1012.4
20260505095504 53 272 2.0 6.0 0.00 0.00 0.00 67 1012.4
20260505095003 54 281 1.0 7.0 0.00 0.00 0.00 67 1012.4
20260505094503 54 284 3.0 8.0 0.00 0.00 0.00 69 1012.5
20260505094004 54 348 1.0 5.0 0.00 0.00 0.00 67 1012.5
20260505093503 54 343 3.0 8.0 0.00 0.00 0.00 70 1012.5
20260505093004 54 314 1.0 3.0 0.00 0.00 0.00 71 1012.6
20260505092503 54 285 2.0 3.0 0.00 0.00 0.00 72 1012.5
20260505092004 53 12 1.0 3.0 0.00 0.00 0.00 71 1012.6
20260505091504 53 302 1.0 3.0 0.00 0.00 0.00 69 1012.6